Broadus, MT (59317)

5:08 AM MST on February 21, 2017 (GMT -0700)
Cinch Buckle | | Change Station
Active Advisory: High Wind Warning

Elev 3114 ft 45.49 °N, 104.98 °W | Updated 4 seconds ago

Mostly Cloudy
Mostly Cloudy
46.4 °F
Feels Like 43 °F
N
6.7
Wind Variable Wind from NE
Gusts 7.4 mph

Today
High -- | Low -- °F
--% Chance of Precip.
Yesterday
High -- | Low -- °F
Precip. -- in
Pressure 29.78 in
Visibility 10.0 miles
Clouds Clear
Windchill 43 °F
Dew Point 33 °F
Humidity 60%
Rainfall 0.00 in
Snow Depth Not available.
6:53 AM 5:37 PM
Waning Crescent, 26% visible
METAR KW43 211155Z AUTO 21013G19KT 10SM CLR 08/00 A2978 RMK AO2
Pressure 29.78 in
Visibility 10.0 miles
Clouds Clear
Windchill 43 °F
Dew Point 33 °F
Humidity 60%
Rainfall 0.00 in
Snow Depth Not available.
6:53 AM 5:37 PM
Waning Crescent, 26% visible
METAR KW43 211155Z AUTO 21013G19KT 10SM CLR 08/00 A2978 RMK AO2

Get Your Daily Forecast Email!

Thanks for signing up!

Be on the lookout for a verification email in your inbox.

You'll start receiving the daily forecast at 8 AM.

×

10-Day Weather Forecast

Almanac

Astronomy

Feb. 21, 2017 Rise Set
Actual Time
Civil Twilight
Nautical Twilight
Astronomical Twilight
Moon
Length of Visible Light
Length of Day
Tomorrow will be .
, % of the Moon is Illuminated

Today's Extremes

State Highs State Lows

Community

WunderPhotos

Upload Photos

1,962,540 photos uploaded!

WunderBlog® & News

Nearby

Air Quality

  Air Quality AQ Index Pollutant
Not available.

Snow Depth

Station Depth Elevation

Earthquake Activity

City Distance Mag. Time & Date
Minimum magnitude displayed is 2.5.

Coastal Water Temperatures

Place Temperature

Stations

Nearby Weather Stations

Station Location Temp. Windchill Dew Point Humidity Wind Precip. Elev Updated Type
                   

Watches & Warnings

High Wind Warning
Issued: 2:50 AM MST Feb. 21, 2017 – National Weather Service

... High Wind Warning in effect from 6 am this morning to 9 PM MST
this evening...

The National Weather Service in Billings has issued a High Wind
Warning... which is in effect from 6 am this morning to 9 PM MST
this evening.

* Timing... southwest to west winds will increase this morning and
remain strong through sunset. Strongest winds will be along the
eastern slopes of the Pryor and Bighorn Mountains, and over the
higher hills further east.

* Impacts... hazardous cross winds on I-90 from Lodge Grass to
Sheridan, as well as Highway 212 through Lame Deer and Broadus.

* Winds... gusts of 50 to 60 mph.

Precautionary/preparedness actions...

Winds of these magnitudes can cause property damage without extra
precautions. Motorists in high profile vehicles should use
caution.